TimePDT,TemperatureF,Dew PointF,Humidity,Sea Level PressureIn,VisibilityMPH,Wind Direction,Wind SpeedMPH,Gust SpeedMPH,PrecipitationIn,Events,Conditions,WindDirDegrees,DateUTC
12:56 AM,55.9,46.9,72,29.57,10.0,SSE,12.7,25.3,N/A,,Clear,160,2013-05-05 07:56:00
1:56 AM,53.1,46.9,80,29.57,10.0,SSE,16.1,26.5,N/A,,Clear,160,2013-05-05 08:56:00
2:56 AM,53.1,46.9,80,29.57,10.0,SSE,13.8,26.5,N/A,,Clear,160,2013-05-05 09:56:00
3:56 AM,54.0,46.0,75,29.58,10.0,SSE,15.0,19.6,N/A,,Partly Cloudy,160,2013-05-05 10:56:00
4:17 AM,53.6,46.4,77,29.61,10.0,SSE,10.4,17.3,N/A,,Mostly Cloudy,160,2013-05-05 11:17:00
4:39 AM,53.6,46.4,77,29.61,10.0,SSE,12.7,20.7,N/A,,Scattered Clouds,160,2013-05-05 11:39:00
4:56 AM,54.0,46.0,75,29.60,10.0,SSE,6.9,-,N/A,,Partly Cloudy,160,2013-05-05 11:56:00
5:56 AM,54.0,46.0,75,29.61,10.0,SSE,9.2,20.7,N/A,,Partly Cloudy,160,2013-05-05 12:56:00
6:56 AM,54.0,46.0,75,29.63,10.0,SSE,10.4,17.3,N/A,,Scattered Clouds,150,2013-05-05 13:56:00
7:06 AM,55.4,46.4,72,29.65,10.0,SSE,9.2,18.4,N/A,,Mostly Cloudy,150,2013-05-05 14:06:00
7:56 AM,55.0,46.0,72,29.65,10.0,SSE,12.7,19.6,N/A,,Mostly Cloudy,150,2013-05-05 14:56:00
8:09 AM,55.4,46.4,72,29.67,10.0,SSE,12.7,21.9,N/A,,Scattered Clouds,150,2013-05-05 15:09:00
8:56 AM,57.0,46.0,67,29.67,10.0,SSE,9.2,17.3,N/A,,Overcast,150,2013-05-05 15:56:00
9:56 AM,59.0,46.0,62,29.68,10.0,SSE,16.1,21.9,N/A,,Scattered Clouds,150,2013-05-05 16:56:00
10:56 AM,60.1,46.0,60,29.69,10.0,SSE,16.1,23.0,N/A,,Overcast,160,2013-05-05 17:56:00
11:56 AM,61.0,45.0,56,29.71,10.0,SSE,15.0,24.2,N/A,,Overcast,160,2013-05-05 18:56:00
12:56 PM,62.1,46.0,56,29.72,10.0,South,16.1,26.5,N/A,,Mostly Cloudy,170,2013-05-05 19:56:00
1:56 PM,61.0,46.0,58,29.73,10.0,SSE,10.4,19.6,N/A,,Overcast,150,2013-05-05 20:56:00
2:56 PM,61.0,46.0,58,29.73,10.0,SE,9.2,-,N/A,,Scattered Clouds,130,2013-05-05 21:56:00
3:56 PM,62.1,46.0,56,29.73,10.0,SSE,5.8,-,0.00,,Partly Cloudy,150,2013-05-05 22:56:00
4:56 PM,64.0,46.0,52,29.72,10.0,SSE,9.2,-,N/A,,Partly Cloudy,150,2013-05-05 23:56:00
5:56 PM,63.0,46.0,54,29.72,10.0,SSE,9.2,-,N/A,,Partly Cloudy,160,2013-05-06 00:56:00
6:56 PM,62.1,46.9,58,29.73,10.0,SSE,9.2,-,N/A,,Overcast,150,2013-05-06 01:56:00
7:56 PM,60.1,46.9,62,29.74,10.0,SSE,9.2,-,N/A,,Mostly Cloudy,160,2013-05-06 02:56:00
8:56 PM,59.0,46.9,64,29.75,10.0,South,6.9,-,N/A,,Overcast,170,2013-05-06 03:56:00
9:56 PM,57.9,46.9,67,29.78,10.0,SSE,6.9,-,N/A,,Mostly Cloudy,150,2013-05-06 04:56:00
10:56 PM,57.0,46.9,69,29.81,10.0,SSE,5.8,-,N/A,,Mostly Cloudy,160,2013-05-06 05:56:00
11:56 PM,57.0,46.9,69,29.83,10.0,SSE,3.5,-,N/A,,Overcast,150,2013-05-06 06:56:00